Milton, FL

5:41 PM CST on December 17, 2017 (GMT -0600)
Whiting Field Naval Air Station (South)

Weather History for KNDZ - October, 2011

Change the Weather History Date:

Wednesday, October 26, 2011

  Actual Average (KNSE) Record (KNSE)
Temperature  
Mean Temperature 62 °F -  
Max Temperature 80 °F 75 °F 91 °F (2010)
Min Temperature 46 °F 56 °F 0 °F (2008)
Degree Days  
Heating Degree Days 2    
Growing Degree Days 12 (Base 50)    
Moisture  
Dew Point 54 °F    
Average Humidity 74    
Maximum Humidity 97    
Minimum Humidity 43    
Precipitation  
Precipitation 0.00 in - - ()
Sea Level Pressure  
Sea Level Pressure 30.02 in    
Wind  
Wind Speed 3 mph (SSE)    
Max Wind Speed 9 mph    
Max Gust Speed -    
Visibility 10 miles    
Events      
Averages and records for this station are not official NWS values.
T = Trace of Precipitation, MM = Missing Value Source: NWS Daily Summary

Daily Weather History Graph

Daily Weather History Graph

Search for Another Location

Airport or City:

Trip Planner

Search our weather history database for the weather conditions in past years. The results will help you decide how hot, cold, wet, or windy it might be!

Date:

Astronomy

Oct. 26, 2011 Rise Set
Actual Time 6:58 AM CDT 6:05 PM CDT
Civil Twilight 6:33 AM CDT 6:30 PM CDT
Nautical Twilight 6:05 AM CDT 6:58 PM CDT
Astronomical Twilight 5:37 AM CDT 7:26 PM CDT
Moon 6:42 AM CDT (10/26) 5:52 PM CDT (10/26)
Length of Visible Light 11h 56m
Length of Day
11h 07m
Waning Crescent, 0% of the Moon is Illuminated
Oct 26
Waning Crescent
Oct 26
New
Nov 2
First Quarter
Nov 10
Full
Nov 18
Last Quarter

Hourly Weather History & Observations

Time (CDT) Temp. Windchill Dew Point Humidity Pressure Visibility Wind Dir Wind Speed Gust Speed Precip Events Conditions
12:56 AM 54.0 °F - 50.0 °F 86% 30.08 in 10.0 mi East 3.5 mph - N/A   Clear
1:56 AM 50.0 °F - 46.9 °F 89% 30.06 in 10.0 mi Calm Calm - N/A   Clear
2:56 AM 50.0 °F - 45.0 °F 83% 30.05 in 10.0 mi Calm Calm - N/A   Clear
3:56 AM 48.0 °F - 45.0 °F 89% 30.04 in 10.0 mi Calm Calm - N/A   Clear
4:56 AM 46.9 °F - 45.0 °F 93% 30.04 in 8.0 mi Calm Calm - N/A   Clear
5:56 AM 46.9 °F - 45.0 °F 93% 30.06 in 10.0 mi North 3.5 mph - N/A   Clear
6:56 AM 46.0 °F 44.8 °F 45.0 °F 96% 30.07 in 10.0 mi NNW 3.5 mph - N/A   Clear
7:56 AM 51.1 °F - 48.9 °F 92% 30.09 in 10.0 mi North 4.6 mph - N/A   Scattered Clouds
8:56 AM 62.1 °F - 54.0 °F 75% 30.10 in 10.0 mi NNE 4.6 mph - N/A   Partly Cloudy
9:56 AM 66.9 °F - 54.0 °F 63% 30.09 in 10.0 mi ENE 4.6 mph - N/A   Clear
10:56 AM 73.0 °F - 55.0 °F 53% 30.08 in 10.0 mi East 4.6 mph - N/A   Clear
11:56 AM 75.0 °F - 57.9 °F 55% 30.06 in 10.0 mi Variable 4.6 mph - N/A   Clear
12:56 PM 79.0 °F - 57.0 °F 47% 30.03 in 10.0 mi South 8.1 mph - N/A   Mostly Cloudy
1:56 PM 78.1 °F - 55.0 °F 45% 30.00 in 10.0 mi South 5.8 mph - N/A   Mostly Cloudy
2:56 PM 78.1 °F - 54.0 °F 43% 29.98 in 10.0 mi SSW 5.8 mph - N/A   Overcast
3:56 PM 78.1 °F - 54.0 °F 43% 29.96 in 10.0 mi South 9.2 mph - N/A   Mostly Cloudy
4:56 PM 77.0 °F - 57.9 °F 52% 29.96 in 10.0 mi Variable 5.8 mph - N/A   Overcast
5:56 PM 72.0 °F - 59.0 °F 64% 29.95 in 10.0 mi South 3.5 mph - N/A   Scattered Clouds
6:56 PM 66.9 °F - 57.9 °F 73% 29.95 in 10.0 mi SSE 3.5 mph - N/A   Clear
7:56 PM 66.9 °F - 60.1 °F 79% 29.95 in 10.0 mi South 4.6 mph - N/A   Clear
8:56 PM 66.9 °F - 61.0 °F 81% 29.95 in 10.0 mi South 4.6 mph - N/A   Clear
9:56 PM 64.9 °F - 61.0 °F 87% 29.95 in 10.0 mi Calm Calm - N/A   Clear
10:56 PM 64.9 °F - 61.0 °F 87% 29.95 in 10.0 mi Calm Calm - N/A   Clear
11:56 PM 57.9 °F - 57.0 °F 97% 29.95 in 8.0 mi WNW 3.5 mph - N/A   Clear